Year,Month,Day,Hour,Minute,Value (Times are PST for temperature in C)
2008,07,25,00,00,16.40
2008,07,25,00,01,16.40
2008,07,25,00,02,16.30
2008,07,25,00,03,16.20
2008,07,25,00,04,16.10
2008,07,25,00,05,16.00
2008,07,25,00,06,16.00
2008,07,25,00,07,15.90
2008,07,25,00,08,15.90
2008,07,25,00,09,15.80
2008,07,25,00,10,15.80
2008,07,25,00,11,15.80
2008,07,25,00,12,15.70
2008,07,25,00,13,15.70
2008,07,25,00,14,15.60
2008,07,25,00,15,15.60
2008,07,25,00,16,15.60
2008,07,25,00,17,15.50
2008,07,25,00,18,15.50
2008,07,25,00,19,15.50
2008,07,25,00,20,15.40
2008,07,25,00,21,15.40
2008,07,25,00,22,15.40
2008,07,25,00,23,15.40
2008,07,25,00,24,15.40
2008,07,25,00,25,15.40
2008,07,25,00,26,15.40
2008,07,25,00,27,15.40
2008,07,25,00,28,15.40
2008,07,25,00,29,15.30
2008,07,25,00,30,15.30
2008,07,25,00,31,15.30
2008,07,25,00,32,15.20
2008,07,25,00,33,15.20
2008,07,25,00,34,15.10
2008,07,25,00,35,15.00
2008,07,25,00,36,15.00
2008,07,25,00,37,15.00
2008,07,25,00,38,15.00
2008,07,25,00,39,15.00
2008,07,25,00,40,15.00
2008,07,25,00,41,15.00
2008,07,25,00,42,15.00
2008,07,25,00,43,14.90
2008,07,25,00,44,14.90
2008,07,25,00,45,14.90
2008,07,25,00,46,14.90
2008,07,25,00,47,14.90
2008,07,25,00,48,14.90
2008,07,25,00,49,15.00
2008,07,25,00,50,15.00
2008,07,25,00,51,15.00
2008,07,25,00,52,15.00
2008,07,25,00,53,15.00
2008,07,25,00,54,15.00
2008,07,25,00,55,15.00
2008,07,25,00,56,15.00
2008,07,25,00,57,15.00
2008,07,25,00,58,15.00
2008,07,25,00,59,15.00
2008,07,25,01,00,15.00
2008,07,25,01,01,15.00
2008,07,25,01,02,15.00
2008,07,25,01,03,15.00
2008,07,25,01,04,15.00
2008,07,25,01,05,15.00
2008,07,25,01,06,15.00
2008,07,25,01,07,15.00
2008,07,25,01,08,15.00
2008,07,25,01,09,15.00
2008,07,25,01,10,15.00
2008,07,25,01,11,15.00
2008,07,25,01,12,15.00
2008,07,25,01,13,15.00
2008,07,25,01,14,15.00
2008,07,25,01,15,15.00
2008,07,25,01,16,15.00
2008,07,25,01,17,15.00
2008,07,25,01,18,15.00
2008,07,25,01,19,15.00
2008,07,25,01,20,15.00
2008,07,25,01,21,14.90
2008,07,25,01,22,14.90
2008,07,25,01,23,14.90
2008,07,25,01,24,14.90
2008,07,25,01,25,14.90
2008,07,25,01,26,14.80
2008,07,25,01,27,14.80
2008,07,25,01,28,14.80
2008,07,25,01,29,14.90
2008,07,25,01,30,14.90
2008,07,25,01,31,14.90
2008,07,25,01,32,14.90
2008,07,25,01,33,14.90
2008,07,25,01,34,14.90
2008,07,25,01,35,14.90
2008,07,25,01,36,14.90
2008,07,25,01,37,14.90
2008,07,25,01,38,14.90
2008,07,25,01,39,14.90
2008,07,25,01,40,14.90
2008,07,25,01,41,14.80
2008,07,25,01,42,14.80
2008,07,25,01,43,14.80
2008,07,25,01,44,14.80
2008,07,25,01,45,14.80
2008,07,25,01,46,14.80
2008,07,25,01,47,14.80
2008,07,25,01,48,14.80
2008,07,25,01,49,14.70
2008,07,25,01,50,14.70
2008,07,25,01,51,14.70
2008,07,25,01,52,14.70
2008,07,25,01,53,14.70
2008,07,25,01,54,14.60
2008,07,25,01,55,14.60
2008,07,25,01,56,14.60
2008,07,25,01,57,14.60
2008,07,25,01,58,14.50
2008,07,25,01,59,14.50
2008,07,25,02,00,14.40
2008,07,25,02,01,14.40
2008,07,25,02,02,14.40
2008,07,25,02,03,14.30
2008,07,25,02,04,14.30
2008,07,25,02,05,14.30
2008,07,25,02,06,14.30
2008,07,25,02,07,14.30
2008,07,25,02,08,14.30
2008,07,25,02,09,14.20
2008,07,25,02,10,14.20
2008,07,25,02,11,14.20
2008,07,25,02,12,14.20
2008,07,25,02,13,14.20
2008,07,25,02,14,14.20
2008,07,25,02,15,14.20
2008,07,25,02,16,14.20
2008,07,25,02,17,14.20
2008,07,25,02,18,14.20
2008,07,25,02,19,14.20
2008,07,25,02,20,14.20
2008,07,25,02,21,14.20
2008,07,25,02,22,14.20
2008,07,25,02,23,14.20
2008,07,25,02,24,14.20
2008,07,25,02,25,14.20
2008,07,25,02,26,14.20
2008,07,25,02,27,14.20
2008,07,25,02,28,14.20
2008,07,25,02,29,14.20
2008,07,25,02,30,14.20
2008,07,25,02,31,14.20
2008,07,25,02,32,14.20
2008,07,25,02,33,14.20
2008,07,25,02,34,14.20
2008,07,25,02,35,14.20
2008,07,25,02,36,14.20
2008,07,25,02,37,14.20
2008,07,25,02,38,14.20
2008,07,25,02,39,14.20
2008,07,25,02,40,14.20
2008,07,25,02,41,14.30
2008,07,25,02,42,14.30
2008,07,25,02,43,14.30
2008,07,25,02,44,14.30
2008,07,25,02,45,14.30
2008,07,25,02,46,14.30
2008,07,25,02,47,14.20
2008,07,25,02,48,14.20
2008,07,25,02,49,14.20
2008,07,25,02,50,14.20
2008,07,25,02,51,14.20
2008,07,25,02,52,14.20
2008,07,25,02,53,14.20
2008,07,25,02,54,14.20
2008,07,25,02,55,14.10
2008,07,25,02,56,14.10
2008,07,25,02,57,14.10
2008,07,25,02,58,14.10
2008,07,25,02,59,14.00
2008,07,25,03,00,14.00
2008,07,25,03,01,13.90
2008,07,25,03,02,13.80
2008,07,25,03,03,13.80
2008,07,25,03,04,13.80
2008,07,25,03,05,13.80
2008,07,25,03,06,13.80
2008,07,25,03,07,13.80
2008,07,25,03,08,13.80
2008,07,25,03,09,13.80
2008,07,25,03,10,13.80
2008,07,25,03,11,13.80
2008,07,25,03,12,13.70
2008,07,25,03,13,13.70
2008,07,25,03,14,13.70
2008,07,25,03,15,13.70
2008,07,25,03,16,13.70
2008,07,25,03,17,13.70
2008,07,25,03,18,13.70
2008,07,25,03,19,13.60
2008,07,25,03,20,13.60
2008,07,25,03,21,13.60
2008,07,25,03,22,13.60
2008,07,25,03,23,13.50
2008,07,25,03,24,13.50
2008,07,25,03,25,13.50
2008,07,25,03,26,13.40
2008,07,25,03,27,13.40
2008,07,25,03,28,13.40
2008,07,25,03,29,13.40
2008,07,25,03,30,13.30
2008,07,25,03,31,13.30
2008,07,25,03,32,13.30
2008,07,25,03,33,13.30
2008,07,25,03,34,13.30
2008,07,25,03,35,13.30
2008,07,25,03,36,13.30
2008,07,25,03,37,13.30
2008,07,25,03,38,13.30
2008,07,25,03,39,13.30
2008,07,25,03,40,13.20
2008,07,25,03,41,13.20
2008,07,25,03,42,13.20
2008,07,25,03,43,13.20
2008,07,25,03,44,13.20
2008,07,25,03,45,13.20
2008,07,25,03,46,13.20
2008,07,25,03,47,13.10
2008,07,25,03,48,13.10
2008,07,25,03,49,13.10
2008,07,25,03,50,13.10
2008,07,25,03,51,13.10
2008,07,25,03,52,13.10
2008,07,25,03,53,13.10
2008,07,25,03,54,13.00
2008,07,25,03,55,13.00
2008,07,25,03,56,13.00
2008,07,25,03,57,13.00
2008,07,25,03,58,13.00
2008,07,25,03,59,13.00
2008,07,25,04,00,13.00
2008,07,25,04,01,13.00
2008,07,25,04,02,13.00
2008,07,25,04,03,13.00
2008,07,25,04,04,13.00
2008,07,25,04,05,13.00
2008,07,25,04,06,13.00
2008,07,25,04,07,13.00
2008,07,25,04,08,13.00
2008,07,25,04,09,13.00
2008,07,25,04,10,13.00
2008,07,25,04,11,13.00
2008,07,25,04,12,13.00
2008,07,25,04,13,13.00
2008,07,25,04,14,13.00
2008,07,25,04,15,13.00
2008,07,25,04,16,12.90
2008,07,25,04,17,12.90
2008,07,25,04,18,12.90
2008,07,25,04,19,12.90
2008,07,25,04,20,12.90
2008,07,25,04,21,12.80
2008,07,25,04,22,12.80
2008,07,25,04,23,12.80
2008,07,25,04,24,12.80
2008,07,25,04,25,12.80
2008,07,25,04,26,12.80
2008,07,25,04,27,12.80
2008,07,25,04,28,12.80
2008,07,25,04,29,12.80
2008,07,25,04,30,12.80
2008,07,25,04,31,12.70
2008,07,25,04,32,12.70
2008,07,25,04,33,12.70
2008,07,25,04,34,12.70
2008,07,25,04,35,12.70
2008,07,25,04,36,12.70
2008,07,25,04,37,12.70
2008,07,25,04,38,12.70
2008,07,25,04,39,12.70
2008,07,25,04,40,12.70
2008,07,25,04,41,12.70
2008,07,25,04,42,12.80
2008,07,25,04,43,12.80
2008,07,25,04,44,12.80
2008,07,25,04,45,12.80
2008,07,25,04,46,12.80
2008,07,25,04,47,12.70
2008,07,25,04,48,12.70
2008,07,25,04,49,12.70
2008,07,25,04,50,12.70
2008,07,25,04,51,12.70
2008,07,25,04,52,12.70
2008,07,25,04,53,12.70
2008,07,25,04,54,12.60
2008,07,25,04,55,12.60
2008,07,25,04,56,12.60
2008,07,25,04,57,12.60
2008,07,25,04,58,12.60
2008,07,25,04,59,12.60
2008,07,25,05,00,12.70
2008,07,25,05,01,12.70
2008,07,25,05,02,12.70
2008,07,25,05,03,12.70
2008,07,25,05,04,12.70
2008,07,25,05,05,12.60
2008,07,25,05,06,12.60
2008,07,25,05,07,12.60
2008,07,25,05,08,12.60
2008,07,25,05,09,12.60
2008,07,25,05,10,12.60
2008,07,25,05,11,12.60
2008,07,25,05,12,12.60
2008,07,25,05,13,12.60
2008,07,25,05,14,12.60
2008,07,25,05,15,12.50
2008,07,25,05,16,12.50
2008,07,25,05,17,12.50
2008,07,25,05,18,12.50
2008,07,25,05,19,12.50
2008,07,25,05,20,12.50
2008,07,25,05,21,12.50
2008,07,25,05,22,12.40
2008,07,25,05,23,12.40
2008,07,25,05,24,12.40
2008,07,25,05,25,12.40
2008,07,25,05,26,12.40
2008,07,25,05,27,12.40
2008,07,25,05,28,12.40
2008,07,25,05,29,12.40
2008,07,25,05,30,12.40
2008,07,25,05,31,12.40
2008,07,25,05,32,12.40
2008,07,25,05,33,12.30
2008,07,25,05,34,12.30
2008,07,25,05,35,12.40
2008,07,25,05,36,12.30
2008,07,25,05,37,12.40
2008,07,25,05,38,12.30
2008,07,25,05,39,12.30
2008,07,25,05,40,12.40
2008,07,25,05,41,12.30
2008,07,25,05,42,12.30
2008,07,25,05,43,12.40
2008,07,25,05,44,12.40
2008,07,25,05,45,12.40
2008,07,25,05,46,12.40
2008,07,25,05,47,12.50
2008,07,25,05,48,12.60
2008,07,25,05,49,12.60
2008,07,25,05,50,12.70
2008,07,25,05,51,12.70
2008,07,25,05,52,12.70
2008,07,25,05,53,12.80
2008,07,25,05,54,12.80
2008,07,25,05,55,12.90
2008,07,25,05,56,12.90
2008,07,25,05,57,13.00
2008,07,25,05,58,13.00
2008,07,25,05,59,13.00
2008,07,25,06,00,13.00
2008,07,25,06,01,13.00
2008,07,25,06,02,13.00
2008,07,25,06,03,12.90
2008,07,25,06,04,12.90
2008,07,25,06,05,12.90
2008,07,25,06,06,12.90
2008,07,25,06,07,12.80
2008,07,25,06,08,12.80
2008,07,25,06,09,12.80
2008,07,25,06,10,12.70
2008,07,25,06,11,12.70
2008,07,25,06,12,12.70
2008,07,25,06,13,12.60
2008,07,25,06,14,12.60
2008,07,25,06,15,12.60
2008,07,25,06,16,12.60
2008,07,25,06,17,12.50
2008,07,25,06,18,12.50
2008,07,25,06,19,12.50
2008,07,25,06,20,12.50
2008,07,25,06,21,12.40
2008,07,25,06,22,12.40
2008,07,25,06,23,12.50
2008,07,25,06,24,12.50
2008,07,25,06,25,12.50
2008,07,25,06,26,12.50
2008,07,25,06,27,12.50
2008,07,25,06,28,12.50
2008,07,25,06,29,12.50
2008,07,25,06,30,12.50
2008,07,25,06,31,12.50
2008,07,25,06,32,12.50
2008,07,25,06,33,12.50
2008,07,25,06,34,12.50
2008,07,25,06,35,12.50
2008,07,25,06,36,12.60
2008,07,25,06,37,12.60
2008,07,25,06,38,12.60
2008,07,25,06,39,12.60
2008,07,25,06,40,12.60
2008,07,25,06,41,12.60
2008,07,25,06,42,12.60
2008,07,25,06,43,12.60
2008,07,25,06,44,12.60
2008,07,25,06,45,12.60
2008,07,25,06,46,12.70
2008,07,25,06,47,12.70
2008,07,25,06,48,12.70
2008,07,25,06,49,12.70
2008,07,25,06,50,12.70
2008,07,25,06,51,12.70
2008,07,25,06,52,12.70
2008,07,25,06,53,12.70
2008,07,25,06,54,12.70
2008,07,25,06,55,12.80
2008,07,25,06,56,12.80
2008,07,25,06,57,12.80
2008,07,25,06,58,12.90
2008,07,25,06,59,12.90
2008,07,25,07,00,12.90
2008,07,25,07,01,12.90
2008,07,25,07,02,12.90
2008,07,25,07,03,13.00
2008,07,25,07,04,13.00
2008,07,25,07,05,13.00
2008,07,25,07,06,13.00
2008,07,25,07,07,13.10
2008,07,25,07,08,13.10
2008,07,25,07,09,13.10
2008,07,25,07,10,13.10
2008,07,25,07,11,13.20
2008,07,25,07,12,13.20
2008,07,25,07,13,13.30
2008,07,25,07,14,13.30
2008,07,25,07,15,13.40
2008,07,25,07,16,13.40
2008,07,25,07,17,13.50
2008,07,25,07,18,13.50
2008,07,25,07,19,13.60
2008,07,25,07,20,13.70
2008,07,25,07,21,13.70
2008,07,25,07,22,13.80
2008,07,25,07,23,13.80
2008,07,25,07,24,13.90
2008,07,25,07,25,14.00
2008,07,25,07,26,14.00
2008,07,25,07,27,14.10
2008,07,25,07,28,14.20
2008,07,25,07,29,14.30
2008,07,25,07,30,14.30
2008,07,25,07,31,14.40
2008,07,25,07,32,14.40
2008,07,25,07,33,14.40
2008,07,25,07,34,14.40
2008,07,25,07,35,14.50
2008,07,25,07,36,14.50
2008,07,25,07,37,14.50
2008,07,25,07,38,14.60
2008,07,25,07,39,14.60
2008,07,25,07,40,14.60
2008,07,25,07,41,14.70
2008,07,25,07,42,14.70
2008,07,25,07,43,14.70
2008,07,25,07,44,14.80
2008,07,25,07,45,14.80
2008,07,25,07,46,14.90
2008,07,25,07,47,15.00
2008,07,25,07,48,15.00
2008,07,25,07,49,15.00
2008,07,25,07,50,15.00
2008,07,25,07,51,15.00
2008,07,25,07,52,15.00
2008,07,25,07,53,15.00
2008,07,25,07,54,15.00
2008,07,25,07,55,15.00
2008,07,25,07,56,15.10
2008,07,25,07,57,15.20
2008,07,25,07,58,15.20
2008,07,25,07,59,15.30
2008,07,25,08,00,15.40
2008,07,25,08,01,15.40
2008,07,25,08,02,15.50
2008,07,25,08,03,15.60
2008,07,25,08,04,15.60
2008,07,25,08,05,15.70
2008,07,25,08,06,15.80
2008,07,25,08,07,15.90
2008,07,25,08,08,16.00
2008,07,25,08,09,16.00
2008,07,25,08,10,16.10
2008,07,25,08,11,16.20
2008,07,25,08,12,16.20
2008,07,25,08,13,16.30
2008,07,25,08,14,16.30
2008,07,25,08,15,16.40
2008,07,25,08,16,16.40
2008,07,25,08,17,16.40
2008,07,25,08,18,16.50
2008,07,25,08,19,16.60
2008,07,25,08,20,16.60
2008,07,25,08,21,16.70
2008,07,25,08,22,16.80
2008,07,25,08,23,16.80
2008,07,25,08,24,16.90
2008,07,25,08,25,17.00
2008,07,25,08,26,17.00
2008,07,25,08,27,17.10
2008,07,25,08,28,17.10
2008,07,25,08,29,17.20
2008,07,25,08,30,17.30
2008,07,25,08,31,17.40
2008,07,25,08,32,17.50
2008,07,25,08,36,17.80
2008,07,25,08,37,17.80
2008,07,25,08,38,17.90
2008,07,25,08,39,17.90
2008,07,25,08,40,17.90
2008,07,25,08,41,17.90
2008,07,25,08,42,17.90
2008,07,25,08,43,18.00
2008,07,25,08,44,18.10
2008,07,25,08,45,18.10
2008,07,25,08,46,18.20
2008,07,25,08,47,18.20
2008,07,25,08,48,18.20
2008,07,25,08,49,18.30
2008,07,25,08,50,18.30
2008,07,25,08,51,18.40
2008,07,25,08,52,18.40
2008,07,25,08,53,18.40
2008,07,25,08,54,18.40
2008,07,25,08,55,18.40
2008,07,25,08,56,18.30
2008,07,25,08,57,18.30
2008,07,25,08,58,18.30
2008,07,25,08,59,18.30
2008,07,25,09,00,18.30
2008,07,25,09,01,18.30
2008,07,25,09,02,18.30
2008,07,25,09,03,18.20
2008,07,25,09,04,18.20
2008,07,25,09,05,18.10
2008,07,25,09,06,18.00
2008,07,25,09,07,18.00
2008,07,25,09,08,18.00
2008,07,25,09,09,18.00
2008,07,25,09,10,17.90
2008,07,25,09,11,17.90
2008,07,25,09,12,17.80
2008,07,25,09,13,17.80
2008,07,25,09,14,17.80
2008,07,25,09,15,17.80
2008,07,25,09,16,17.80
2008,07,25,09,17,17.80
2008,07,25,09,18,17.80
2008,07,25,09,19,17.80
2008,07,25,09,20,17.70
2008,07,25,09,21,17.70
2008,07,25,09,22,17.70
2008,07,25,09,23,17.60
2008,07,25,09,24,17.50
2008,07,25,09,25,17.50
2008,07,25,09,26,17.40
2008,07,25,09,27,17.30
2008,07,25,09,28,17.30
2008,07,25,09,29,17.10
2008,07,25,09,30,17.10
2008,07,25,09,31,17.00
2008,07,25,09,32,17.00
2008,07,25,09,33,16.90
2008,07,25,09,34,16.90
2008,07,25,09,35,16.90
2008,07,25,09,36,16.80
2008,07,25,09,37,16.80
2008,07,25,09,38,16.70
2008,07,25,09,39,16.80
2008,07,25,09,40,16.80
2008,07,25,09,41,16.80
2008,07,25,09,42,16.90
2008,07,25,09,43,16.90
2008,07,25,09,44,17.00
2008,07,25,09,45,17.10
2008,07,25,09,46,17.20
2008,07,25,09,47,17.30
2008,07,25,09,48,17.40
2008,07,25,09,49,17.60
2008,07,25,09,50,17.70
2008,07,25,09,51,17.80
2008,07,25,09,52,17.90
2008,07,25,09,53,18.00
2008,07,25,09,54,18.10
2008,07,25,09,55,18.20
2008,07,25,09,56,18.30
2008,07,25,09,57,18.30
2008,07,25,09,58,18.40
2008,07,25,09,59,18.40
2008,07,25,10,00,18.50
2008,07,25,10,01,18.60
2008,07,25,10,02,18.60
2008,07,25,10,03,18.70
2008,07,25,10,04,18.70
2008,07,25,10,05,18.70
2008,07,25,10,06,18.80
2008,07,25,10,07,18.80
2008,07,25,10,08,18.80
2008,07,25,10,09,18.80
2008,07,25,10,10,18.80
2008,07,25,10,11,18.80
2008,07,25,10,12,18.80
2008,07,25,10,13,18.70
2008,07,25,10,14,18.60
2008,07,25,10,15,18.60
2008,07,25,10,16,18.60
2008,07,25,10,17,18.60
2008,07,25,10,18,18.60
2008,07,25,10,19,18.60
2008,07,25,10,20,18.60
2008,07,25,10,21,18.50
2008,07,25,10,22,18.50
2008,07,25,10,23,18.40
2008,07,25,10,24,18.40
2008,07,25,10,25,18.50
2008,07,25,10,26,18.50
2008,07,25,10,27,18.60
2008,07,25,10,28,18.60
2008,07,25,10,29,18.70
2008,07,25,10,30,18.70
2008,07,25,10,31,18.70
2008,07,25,10,32,18.70
2008,07,25,10,33,18.80
2008,07,25,10,34,18.80
2008,07,25,10,35,18.80
2008,07,25,10,36,18.80
2008,07,25,10,37,18.80
2008,07,25,10,38,18.90
2008,07,25,10,39,18.90
2008,07,25,10,40,18.90
2008,07,25,10,41,18.90
2008,07,25,10,42,18.90
2008,07,25,10,43,18.90
2008,07,25,10,44,19.00
2008,07,25,10,45,19.00
2008,07,25,10,46,18.90
2008,07,25,10,47,18.80
2008,07,25,10,48,18.70
2008,07,25,10,49,18.60
2008,07,25,10,50,18.40
2008,07,25,10,51,18.40
2008,07,25,10,52,18.30
2008,07,25,10,53,18.30
2008,07,25,10,54,18.40
2008,07,25,10,55,18.40
2008,07,25,10,56,18.50
2008,07,25,10,57,18.60
2008,07,25,10,58,18.70
2008,07,25,10,59,18.90
2008,07,25,11,00,19.00
2008,07,25,11,01,19.10
2008,07,25,11,02,19.30
2008,07,25,11,03,19.30
2008,07,25,11,04,19.40
2008,07,25,11,05,19.40
2008,07,25,11,06,19.30
2008,07,25,11,07,19.30
2008,07,25,11,08,19.30
2008,07,25,11,09,19.20
2008,07,25,11,10,19.20
2008,07,25,11,11,19.20
2008,07,25,11,12,19.20
2008,07,25,11,13,19.30
2008,07,25,11,14,19.30
2008,07,25,11,15,19.20
2008,07,25,11,16,19.20
2008,07,25,11,17,19.10
2008,07,25,11,18,18.90
2008,07,25,11,19,18.80
2008,07,25,11,20,18.70
2008,07,25,11,21,18.60
2008,07,25,11,22,18.60
2008,07,25,11,23,18.50
2008,07,25,11,24,18.50
2008,07,25,11,25,18.50
2008,07,25,11,26,18.50
2008,07,25,11,27,18.50
2008,07,25,11,28,18.50
2008,07,25,11,29,18.40
2008,07,25,11,30,18.30
2008,07,25,11,31,18.10
2008,07,25,11,32,18.00
2008,07,25,11,33,18.00
2008,07,25,11,34,17.90
2008,07,25,11,35,17.90
2008,07,25,11,36,17.80
2008,07,25,11,37,17.80
2008,07,25,11,38,17.70
2008,07,25,11,39,17.70
2008,07,25,11,40,17.60
2008,07,25,11,41,17.40
2008,07,25,11,42,17.30
2008,07,25,11,43,17.20
2008,07,25,11,44,17.10
2008,07,25,11,45,17.00
2008,07,25,11,46,17.10
2008,07,25,11,47,17.00
2008,07,25,11,48,17.00
2008,07,25,11,49,17.00
2008,07,25,11,50,17.00
2008,07,25,11,51,17.10
2008,07,25,11,52,17.10
2008,07,25,11,53,17.10
2008,07,25,11,54,17.00
2008,07,25,11,55,17.00
2008,07,25,11,56,17.00
2008,07,25,11,57,17.00
2008,07,25,11,58,17.00
2008,07,25,11,59,17.00
2008,07,25,12,00,17.00
2008,07,25,12,01,16.90
2008,07,25,12,02,16.90
2008,07,25,12,03,16.90
2008,07,25,12,04,16.90
2008,07,25,12,05,16.90
2008,07,25,12,06,16.90
2008,07,25,12,07,16.90
2008,07,25,12,08,16.90
2008,07,25,12,09,17.00
2008,07,25,12,10,17.00
2008,07,25,12,11,17.10
2008,07,25,12,12,17.10
2008,07,25,12,13,17.10
2008,07,25,12,14,17.10
2008,07,25,12,15,17.00
2008,07,25,12,16,17.00
2008,07,25,12,17,17.10
2008,07,25,12,18,17.10
2008,07,25,12,19,17.10
2008,07,25,12,20,17.10
2008,07,25,12,21,17.00
2008,07,25,12,22,17.00
2008,07,25,12,23,16.90
2008,07,25,12,24,16.90
2008,07,25,12,25,16.90
2008,07,25,12,26,16.90
2008,07,25,12,27,16.90
2008,07,25,12,28,16.80
2008,07,25,12,29,16.80
2008,07,25,12,30,16.70
2008,07,25,12,31,16.70
2008,07,25,12,32,16.70
2008,07,25,12,33,16.70
2008,07,25,12,34,16.80
2008,07,25,12,35,16.90
2008,07,25,12,36,17.00
2008,07,25,12,37,17.10
2008,07,25,12,38,17.20
2008,07,25,12,39,17.20
2008,07,25,12,40,17.20
2008,07,25,12,41,17.30
2008,07,25,12,42,17.30
2008,07,25,12,43,17.30
2008,07,25,12,44,17.40
2008,07,25,12,45,17.50
2008,07,25,12,46,17.50
2008,07,25,12,47,17.60
2008,07,25,12,48,17.50
2008,07,25,12,49,17.40
2008,07,25,12,50,17.30
2008,07,25,12,51,17.10
2008,07,25,12,52,17.00
2008,07,25,12,53,16.90
2008,07,25,12,54,16.90
2008,07,25,12,55,16.90
2008,07,25,12,56,17.00
2008,07,25,12,57,17.00
2008,07,25,12,58,17.10
2008,07,25,12,59,17.20
2008,07,25,13,00,17.30
2008,07,25,13,01,17.20
2008,07,25,13,02,17.20
2008,07,25,13,03,17.10
2008,07,25,13,04,17.10
2008,07,25,13,05,17.10
2008,07,25,13,06,17.00
2008,07,25,13,07,17.00
2008,07,25,13,08,17.10
2008,07,25,13,09,17.20
2008,07,25,13,10,17.40
2008,07,25,13,11,17.50
2008,07,25,13,12,17.50
2008,07,25,13,13,17.60
2008,07,25,13,14,17.70
2008,07,25,13,15,17.70
2008,07,25,13,16,17.80
2008,07,25,13,17,17.80
2008,07,25,13,18,17.80
2008,07,25,13,19,17.70
2008,07,25,13,20,17.80
2008,07,25,13,21,17.80
2008,07,25,13,22,17.90
2008,07,25,13,23,18.00
2008,07,25,13,24,18.10
2008,07,25,13,25,18.20
2008,07,25,13,26,18.30
2008,07,25,13,27,18.30
2008,07,25,13,28,18.30
2008,07,25,13,29,18.30
2008,07,25,13,30,18.30
2008,07,25,13,31,18.30
2008,07,25,13,32,18.30
2008,07,25,13,33,18.30
2008,07,25,13,34,18.30
2008,07,25,13,35,18.40
2008,07,25,13,36,18.50
2008,07,25,13,37,18.60
2008,07,25,13,38,18.70
2008,07,25,13,39,18.90
2008,07,25,13,40,19.00
2008,07,25,13,41,19.20
2008,07,25,13,42,19.30
2008,07,25,13,43,19.50
2008,07,25,13,44,19.60
2008,07,25,13,45,19.60
2008,07,25,13,46,19.50
2008,07,25,13,47,19.40
2008,07,25,13,48,19.30
2008,07,25,13,49,19.20
2008,07,25,13,50,19.30
2008,07,25,13,51,19.20
2008,07,25,13,52,19.20
2008,07,25,13,53,19.20
2008,07,25,13,54,19.20
2008,07,25,13,55,19.20
2008,07,25,13,56,19.20
2008,07,25,13,57,19.20
2008,07,25,13,58,19.30
2008,07,25,13,59,19.30
2008,07,25,14,00,19.40
2008,07,25,14,01,19.50
2008,07,25,14,02,19.60
2008,07,25,14,03,19.80
2008,07,25,14,04,19.90
2008,07,25,14,05,19.80
2008,07,25,14,06,19.80
2008,07,25,14,07,19.90
2008,07,25,14,08,19.90
2008,07,25,14,09,19.80
2008,07,25,14,10,19.70
2008,07,25,14,11,19.70
2008,07,25,14,12,19.70
2008,07,25,14,13,19.80
2008,07,25,14,14,19.80
2008,07,25,14,15,19.80
2008,07,25,14,16,19.80
2008,07,25,14,17,19.90
2008,07,25,14,18,19.90
2008,07,25,14,19,19.90
2008,07,25,14,20,19.90
2008,07,25,14,21,19.90
2008,07,25,14,22,20.00
2008,07,25,14,23,20.20
2008,07,25,14,24,20.30
2008,07,25,14,25,20.40
2008,07,25,14,26,20.60
2008,07,25,14,27,20.60
2008,07,25,14,28,20.60
2008,07,25,14,29,20.50
2008,07,25,14,30,20.50
2008,07,25,14,31,20.40
2008,07,25,14,32,20.40
2008,07,25,14,33,20.40
2008,07,25,14,34,20.50
2008,07,25,14,35,20.50
2008,07,25,14,36,20.60
2008,07,25,14,37,20.60
2008,07,25,14,38,20.50
2008,07,25,14,39,20.50
2008,07,25,14,40,20.50
2008,07,25,14,41,20.60
2008,07,25,14,42,20.80
2008,07,25,14,43,20.90
2008,07,25,14,44,21.10
2008,07,25,14,45,21.20
2008,07,25,14,46,21.20
2008,07,25,14,47,21.30
2008,07,25,14,48,21.30
2008,07,25,14,49,21.30
2008,07,25,14,50,21.30
2008,07,25,14,51,21.30
2008,07,25,14,52,21.30
2008,07,25,14,53,21.40
2008,07,25,14,54,21.60
2008,07,25,14,55,21.70
2008,07,25,14,56,21.80
2008,07,25,14,57,21.80
2008,07,25,14,58,21.80
2008,07,25,14,59,21.80
2008,07,25,15,00,21.70
2008,07,25,15,01,21.60
2008,07,25,15,02,21.50
2008,07,25,15,03,21.30
2008,07,25,15,04,21.20
2008,07,25,15,05,21.20
2008,07,25,15,06,21.30
2008,07,25,15,07,21.30
2008,07,25,15,08,21.20
2008,07,25,15,09,21.20
2008,07,25,15,10,21.30
2008,07,25,15,11,21.40
2008,07,25,15,12,21.40
2008,07,25,15,13,21.40
2008,07,25,15,14,21.50
2008,07,25,15,15,21.50
2008,07,25,15,16,21.60
2008,07,25,15,17,21.60
2008,07,25,15,18,21.60
2008,07,25,15,19,21.60
2008,07,25,15,20,21.60
2008,07,25,15,21,21.60
2008,07,25,15,22,21.70
2008,07,25,15,23,21.70
2008,07,25,15,24,21.70
2008,07,25,15,25,21.70
2008,07,25,15,26,21.70
2008,07,25,15,27,21.70
2008,07,25,15,28,21.70
2008,07,25,15,29,21.60
2008,07,25,15,30,21.60
2008,07,25,15,31,21.60
2008,07,25,15,32,21.70
2008,07,25,15,33,21.60
2008,07,25,15,34,21.60
2008,07,25,15,35,21.60
2008,07,25,15,36,21.60
2008,07,25,15,37,21.70
2008,07,25,15,38,21.70
2008,07,25,15,39,21.70
2008,07,25,15,40,21.70
2008,07,25,15,41,21.70
2008,07,25,15,42,21.60
2008,07,25,15,43,21.60
2008,07,25,15,44,21.50
2008,07,25,15,45,21.50
2008,07,25,15,46,21.40
2008,07,25,15,47,21.40
2008,07,25,15,48,21.30
2008,07,25,15,49,21.30
2008,07,25,15,50,21.30
2008,07,25,15,51,21.30
2008,07,25,15,52,21.30
2008,07,25,15,53,21.20
2008,07,25,15,54,21.10
2008,07,25,15,55,21.10
2008,07,25,15,56,21.10
2008,07,25,15,57,21.00
2008,07,25,15,58,21.00
2008,07,25,15,59,21.10
2008,07,25,16,00,21.20
2008,07,25,16,01,21.40
2008,07,25,16,02,21.60
2008,07,25,16,03,21.80
2008,07,25,16,04,21.90
2008,07,25,16,05,22.10
2008,07,25,16,06,22.10
2008,07,25,16,07,22.00
2008,07,25,16,08,21.90
2008,07,25,16,09,21.90
2008,07,25,16,10,22.00
2008,07,25,16,11,22.10
2008,07,25,16,12,22.20
2008,07,25,16,13,22.30
2008,07,25,16,14,22.50
2008,07,25,16,15,22.60
2008,07,25,16,16,22.80
2008,07,25,16,17,22.90
2008,07,25,16,18,23.00
2008,07,25,16,19,23.00
2008,07,25,16,20,23.10
2008,07,25,16,21,23.20
2008,07,25,16,22,23.40
2008,07,25,16,23,23.50
2008,07,25,16,24,23.60
2008,07,25,16,25,23.70
2008,07,25,16,26,23.70
2008,07,25,16,27,23.80
2008,07,25,16,28,23.80
2008,07,25,16,29,23.80
2008,07,25,16,30,23.80
2008,07,25,16,31,23.80
2008,07,25,16,32,23.70
2008,07,25,16,33,23.60
2008,07,25,16,34,23.60
2008,07,25,16,35,23.60
2008,07,25,16,36,23.60
2008,07,25,16,37,23.60
2008,07,25,16,38,23.40
2008,07,25,16,39,23.30
2008,07,25,16,40,23.30
2008,07,25,16,41,23.30
2008,07,25,16,42,23.30
2008,07,25,16,43,23.30
2008,07,25,16,44,23.40
2008,07,25,16,45,23.30
2008,07,25,16,46,23.30
2008,07,25,16,47,23.30
2008,07,25,16,48,23.20
2008,07,25,16,49,23.20
2008,07,25,16,50,23.20
2008,07,25,16,51,23.20
2008,07,25,16,52,23.30
2008,07,25,16,53,23.30
2008,07,25,16,54,23.30
2008,07,25,16,55,23.30
2008,07,25,16,56,23.40
2008,07,25,16,57,23.40
2008,07,25,16,58,23.50
2008,07,25,16,59,23.70
2008,07,25,17,00,23.80
2008,07,25,17,01,23.80
2008,07,25,17,02,23.80
2008,07,25,17,03,23.90
2008,07,25,17,04,23.90
2008,07,25,17,05,23.80
2008,07,25,17,06,23.60
2008,07,25,17,07,23.40
2008,07,25,17,08,23.30
2008,07,25,17,09,23.20
2008,07,25,17,10,23.20
2008,07,25,17,11,23.20
2008,07,25,17,12,23.30
2008,07,25,17,13,23.30
2008,07,25,17,14,23.30
2008,07,25,17,15,23.40
2008,07,25,17,16,23.50
2008,07,25,17,17,23.60
2008,07,25,17,18,23.60
2008,07,25,17,19,23.60
2008,07,25,17,20,23.70
2008,07,25,17,21,23.80
2008,07,25,17,22,23.80